Location: Dumpton Point
(51.3500°N, 1.4433°E)
Time: 04:17:28
(UTC+00:00)

CZ-4C R/B - Pass Details

Date: 09 April 2020
Orbit: 637 x 1365 km, 63.4° (Epoch: 01 June)

Event Time Altitude Azimuth Distance (km) Brightness Sun altitude
Rises 22:36:45 0° 314° (NW) 3,808 6.6 -28.2°
Reaches altitude 10° 22:39:18 10° 309° (NW) 2,952 5.7 -28.4°
Maximum altitude 22:46:10 51° 237° (WSW) 1,510 3.3 -28.8°
Enters shadow 22:47:01 49° 217° (SW) 1,560 3.2 -28.8°
